User: anonymous   Login
Location: Acheville
(50.3840°N, 2.8827°E)
Time: 05:34:30
(UTC+00:00)
Language:

Cosmos 2360 Rocket - Orbit

View from above orbital plane
View from above orbital plane
View from above satellite
View from above satellite

Ground track
Ground track

The orbit data is extracted from the following two-line orbital elements,

1 25407U 98045B   22024.52975527  .00000111  00000-0  80850-4 0  9994
2 25407  71.0121 105.8553 0007057 178.5507 181.5637 14.15851165214039
Epoch (UTC): 24 January 2022 12:42:50
Eccentricity: 0.0007057
inclination: 71.0121°
perigee height: 834 km
apogee height: 844 km
right ascension of ascending node: 105.8553°
argument of perigee: 178.5507°
revolutions per day: 14.15851165
mean anomaly at epoch: 181.5637°
orbit number at epoch: 21403

The dashed part of the orbit path shows where the satellite is in the earth's shadow,  

DLR